Date String (YYYY-MM-DD hh:mm:ss) UTC,Instrument flags,absolute air pressure of the measurement (hPa),sample flow rate (lpm),inlet stack bypass flow (lpm),air temperature of the measurement (°C),ambient temperature measured by the external sensor (°C),aerosol sample conditioner tube jacket temperature (°C),OPC LED temperature (°C),internal box temperature (°C),relative humidity of the measurement (%),span deviation,mass concentration of particles derived from Lorenz-Mie calculation of OPC scattering (μg/m³),mass concentration of particles derived from Lorenz-Mie calculation of OPC scattering (μg/m³),mass concentration of particles derived from Lorenz-Mie calculation of OPC scattering (μg/m³)
DateTimeUTC,F1_M11,P_M11,Q1_M11,Q2_M11,T1_M11,T2_M11,T3_M11,T4_M11,T5_M11,U1_M11,ZSPAN_M11,X2_M11,X0_M11,X1_M11
2024-02-12 05:00:00,SystemResetWarning,0828.8,5.00,000.00,018.4,017.7,000.0,026.8,020.0,11.3,0000.0,0003.24,0005.03,0003.10
2024-02-12 05:01:00,SystemResetWarning,0828.8,5.00,000.00,018.4,017.7,000.0,026.8,020.0,11.3,0000.0,0003.25,0005.00,0003.10
2024-02-12 05:02:00,SystemResetWarning,0828.8,4.99,000.00,018.3,017.7,000.0,026.8,020.0,11.3,0000.0,0003.25,0005.03,0003.11
2024-02-12 05:03:00,SystemResetWarning,0828.8,5.00,000.00,018.3,017.6,000.0,026.8,020.0,11.3,0000.0,0003.26,0004.52,0003.12
2024-02-12 05:04:00,SystemResetWarning,0828.8,4.99,000.00,018.3,017.6,000.0,026.9,020.0,11.2,0000.0,0003.25,0004.17,0003.10
2024-02-12 05:05:00,SystemResetWarning,0828.8,5.01,000.00,018.3,017.5,000.0,026.9,020.0,11.2,0000.0,0003.24,0004.49,0003.09
2024-02-12 05:06:00,SystemResetWarning,0828.8,5.01,000.00,018.3,017.5,000.0,026.9,020.0,11.2,0000.0,0003.23,0004.40,0003.08
2024-02-12 05:07:00,SystemResetWarning,0828.8,4.99,000.00,018.3,017.5,000.0,026.9,020.0,11.2,0000.0,0003.24,0004.45,0003.08
2024-02-12 05:08:00,SystemResetWarning,0828.8,4.99,000.00,018.3,017.5,000.0,026.9,020.0,11.3,0000.0,0003.22,0004.36,0003.08
2024-02-12 05:09:00,SystemResetWarning,0828.8,5.00,000.00,018.3,017.5,000.0,026.9,020.0,11.3,0000.0,0003.20,0004.33,0003.07
2024-02-12 05:10:00,SystemResetWarning,0828.8,5.00,000.00,018.3,017.4,000.0,026.9,020.0,11.3,0000.0,0003.19,0004.30,0003.05
2024-02-12 05:11:00,SystemResetWarning,0828.8,5.02,000.00,018.2,017.4,000.0,026.9,020.0,11.3,0000.0,0003.17,0004.22,0003.03
2024-02-12 05:12:00,SystemResetWarning,0828.8,5.00,000.00,018.3,017.6,000.0,026.9,020.1,11.2,0000.0,0003.15,0004.21,0003.00
2024-02-12 05:13:00,SystemResetWarning,0828.8,4.99,000.00,018.4,018.3,000.0,027.0,020.5,11.2,0000.0,0003.14,0004.22,0002.96
2024-02-12 05:14:00,SystemResetWarning,0828.8,5.00,000.00,018.6,018.8,000.0,027.0,020.7,11.1,0000.0,0003.11,0004.21,0002.91
2024-02-12 05:15:00,SystemResetWarning,0828.8,4.99,000.00,018.6,018.6,000.0,026.9,020.5,11.1,0000.0,0003.08,0004.11,0002.88
2024-02-12 05:16:00,SystemResetWarning,0828.7,5.00,000.00,018.6,018.4,000.0,026.9,020.3,11.2,0000.0,0003.09,0003.84,0002.88
2024-02-12 05:17:00,SystemResetWarning,0828.7,5.02,000.00,018.5,018.2,000.0,026.8,020.2,11.2,0000.0,0003.06,0003.68,0002.87
2024-02-12 05:18:00,SystemResetWarning,0828.7,5.00,000.00,018.5,018.1,000.0,026.8,020.1,11.2,0000.0,0003.03,0003.64,0002.84
2024-02-12 05:19:00,SystemResetWarning,0828.7,5.00,000.00,018.4,018.0,000.0,026.8,020.0,11.2,0000.0,0003.02,0003.63,0002.82
2024-02-12 05:20:00,SystemResetWarning,0828.7,4.99,000.00,018.4,017.9,000.0,026.8,020.0,11.2,0000.0,0002.97,0003.52,0002.78
2024-02-12 05:21:00,SystemResetWarning,0828.7,5.00,000.00,018.4,017.8,000.0,026.8,020.0,11.2,0000.0,0002.97,0003.54,0002.78
2024-02-12 05:22:00,SystemResetWarning,0828.7,5.00,000.00,018.4,017.7,000.0,026.8,020.0,11.2,0000.0,0002.98,0003.64,0002.77
2024-02-12 05:23:00,SystemResetWarning,0828.7,5.01,000.00,018.3,017.6,000.0,026.8,020.0,11.4,0000.0,0002.98,0003.85,0002.76
2024-02-12 05:24:00,SystemResetWarning,0828.7,5.00,000.00,018.3,017.6,000.0,026.8,020.0,11.3,0000.0,0002.97,0003.78,0002.77
2024-02-12 05:25:00,SystemResetWarning,0828.7,5.01,000.00,018.3,017.6,000.0,026.8,020.0,11.3,0000.0,0002.96,0003.71,0002.77
2024-02-12 05:26:00,SystemResetWarning,0828.7,5.00,000.00,018.3,017.5,000.0,026.8,020.0,11.2,0000.0,0002.96,0003.71,0002.77
2024-02-12 05:27:00,SystemResetWarning,0828.7,5.00,000.00,018.3,017.5,000.0,026.9,020.0,11.3,0000.0,0002.93,0003.68,0002.74
2024-02-12 05:28:00,SystemResetWarning,0828.7,4.99,000.00,018.3,017.4,000.0,026.9,020.0,11.3,0000.0,0002.93,0003.71,0002.73
2024-02-12 05:29:00,SystemResetWarning,0828.7,4.99,000.00,018.3,017.4,000.0,026.9,020.0,11.3,0000.0,0002.93,0003.70,0002.73
2024-02-12 05:30:00,SystemResetWarning,0828.7,5.00,000.00,018.3,017.6,000.0,026.9,020.1,11.3,0000.0,0002.92,0003.69,0002.72
2024-02-12 05:31:00,SystemResetWarning,0828.7,5.01,000.00,018.4,018.3,000.0,027.0,020.5,11.2,0000.0,0002.95,0003.78,0002.71
2024-02-12 05:32:00,SystemResetWarning,0828.8,5.00,000.00,018.6,018.8,000.0,027.0,020.8,11.0,0000.0,0002.96,0003.83,0002.71
2024-02-12 05:33:00,SystemResetWarning,0828.7,4.99,000.00,018.6,018.7,000.0,027.0,020.6,11.0,0000.0,0002.95,0003.76,0002.71
2024-02-12 05:34:00,SystemResetWarning,0828.6,4.99,000.00,018.6,018.5,000.0,026.9,020.3,11.0,0000.0,0002.93,0003.53,0002.70
2024-02-12 05:35:00,SystemResetWarning,0828.6,5.00,000.00,018.5,018.4,000.0,026.9,020.2,10.9,0000.0,0002.93,0003.88,0002.70
2024-02-12 05:36:00,SystemResetWarning,0828.6,5.01,000.00,018.5,018.2,000.0,026.8,020.1,11.0,0000.0,0002.94,0004.28,0002.69
2024-02-12 05:37:00,SystemResetWarning,0828.6,5.01,000.00,018.5,018.1,000.0,026.8,020.1,11.0,0000.0,0002.93,0004.30,0002.68
2024-02-12 05:38:00,SystemResetWarning,0828.6,5.00,000.00,018.4,017.9,000.0,026.8,020.0,11.0,0000.0,0002.94,0004.32,0002.68
2024-02-12 05:39:00,SystemResetWarning,0828.6,5.00,000.00,018.4,017.9,000.0,026.8,020.0,11.0,0000.0,0002.93,0004.30,0002.69
2024-02-12 05:40:00,SystemResetWarning,0828.6,5.00,000.00,018.4,017.8,000.0,026.8,020.0,11.1,0000.0,0002.90,0004.30,0002.65
2024-02-12 05:41:00,SystemResetWarning,0828.6,5.00,000.00,018.4,017.7,000.0,026.8,020.0,11.1,0000.0,0002.87,0004.26,0002.64
2024-02-12 05:42:00,SystemResetWarning,0828.6,5.00,000.00,018.3,017.6,000.0,026.8,020.0,11.2,0000.0,0002.85,0004.42,0002.63
2024-02-12 05:43:00,SystemResetWarning,0828.6,4.99,000.00,018.3,017.6,000.0,026.8,020.0,11.2,0000.0,0002.86,0004.50,0002.64
2024-02-12 05:44:00,SystemResetWarning,0828.6,4.99,000.00,018.3,017.5,000.0,026.8,020.0,11.2,0000.0,0002.90,0004.70,0002.64
2024-02-12 05:45:00,SystemResetWarning,0828.6,4.99,000.00,018.3,017.5,000.0,026.9,020.0,11.1,0000.0,0002.89,0004.67,0002.64
2024-02-12 05:46:00,SystemResetWarning,0828.6,5.00,000.00,018.3,017.5,000.0,026.9,020.0,11.1,0000.0,0002.84,0004.38,0002.61
2024-02-12 05:47:00,SystemResetWarning,0828.6,5.01,000.00,018.3,017.5,000.0,026.9,020.0,11.2,0000.0,0002.83,0003.88,0002.58
2024-02-12 05:48:00,SystemResetWarning,0828.6,5.02,000.00,018.3,017.4,000.0,026.9,020.0,11.2,0000.0,0002.82,0003.87,0002.57
2024-02-12 05:49:00,SystemResetWarning,0828.6,5.00,000.00,018.3,017.4,000.0,026.9,020.0,11.2,0000.0,0002.81,0004.22,0002.57
2024-02-12 05:50:00,SystemResetWarning,0828.6,4.99,000.00,018.3,017.7,000.0,026.9,020.2,11.3,0000.0,0002.80,0004.54,0002.56
2024-02-12 05:51:00,SystemResetWarning,0828.6,5.00,000.00,018.4,018.4,000.0,027.0,020.6,11.2,0000.0,0002.80,0004.55,0002.55
2024-02-12 05:52:00,SystemResetWarning,0828.6,5.00,000.00,018.6,018.8,000.0,027.0,020.7,11.1,0000.0,0002.80,0005.24,0002.55
2024-02-12 05:53:00,SystemResetWarning,0828.6,5.00,000.00,018.6,018.6,000.0,026.9,020.5,11.1,0000.0,0002.79,0005.16,0002.53
2024-02-12 05:54:00,SystemResetWarning,0828.6,4.99,000.00,018.6,018.4,000.0,026.9,020.3,11.1,0000.0,0002.76,0004.91,0002.52
2024-02-12 05:55:00,SystemResetWarning,0828.6,5.00,000.00,018.5,018.3,000.0,026.9,020.2,11.1,0000.0,0002.72,0004.86,0002.50
2024-02-12 05:56:00,SystemResetWarning,0828.6,5.01,000.00,018.5,018.1,000.0,026.8,020.1,11.2,0000.0,0002.71,0004.88,0002.48
2024-02-12 05:57:00,SystemResetWarning,0828.5,5.01,000.00,018.4,018.0,000.0,026.8,020.0,11.2,0000.0,0002.73,0004.92,0002.49
2024-02-12 05:58:00,SystemResetWarning,0828.5,4.99,000.00,018.4,017.8,000.0,026.8,020.0,11.2,0000.0,0002.73,0004.91,0002.49
2024-02-12 05:59:00,SystemResetWarning,0828.5,5.00,000.00,018.4,017.7,000.0,026.8,020.0,11.3,0000.0,0002.74,0004.94,0002.50
